Tracking 19634 objects as of 21-May-2019
HD Live streaming from Space Station
objects crossing your sky now

SL-16 DEB

Track SL-16 DEB now!
10-day predictions


NORAD ID: 39877
Int'l Code: 1993-016BB
Perigee: 748.8 km
Apogee: 950.4 km
Inclination: 71.0 °
Period: 101.8 minutes
Semi major axis: 7220 km
RCS: 0.006 m2 (small)
Launch date: March 26, 1993
Source: Commonwealth of Independent States (former USSR) (CIS)
Launch site: TYURATAM MISSILE AND SPACE COMPLEX (TTMTR)

Note: This is SATELLITE DEBRIS
aabbcc
Your satellite tracking list
Your tracking list is empty




NASA's NSSDC Master Catalog

Two Line Element Set (TLE):
1 39877U 93016BB  19081.08693069 +.00001300 +00000-0 +63417-3 0  9991
2 39877 070.9888 237.6399 0139630 318.6108 040.4499 14.14961969743075
Source of the keplerian elements: AFSPC